User: anonymous   Login
Location: Monteux
(44.0348°N, 4.9972°E)
Time: 10:35:00
(UTC+00:00)
Language:

Cosmos 2341 Rocket - Orbit

View from above orbital plane
View from above orbital plane
View from above satellite
View from above satellite

Ground track
Ground track

The orbit data is extracted from the following two-line orbital elements,

1 24773U 97017B   22272.60965450  .00000063  00000-0  51093-4 0  9998
2 24773  82.9254  22.6309 0023749 335.7336  34.7446 13.73701971275924
Epoch (UTC): 29 September 2022 14:37:54
Eccentricity: 0.0023749
inclination: 82.9254°
perigee height: 969 km
apogee height: 1004 km
right ascension of ascending node: 22.6309°
argument of perigee: 335.7336°
revolutions per day: 13.73701971
mean anomaly at epoch: 34.7446°
orbit number at epoch: 27592

The dashed part of the orbit path shows where the satellite is in the earth's shadow,  

DLR